Regional Weather Roundup
Issued by NWS

Home | Current Version | Previous Version | Text Only | Print | Product List | Glossary Off
Versions: 1 2 3 4 5 6 7 8 9 10 11 12 13 14 15 16 17 18 19 20 21 22 23 24 25 26 27 28 29 30 31 32 33 34 35 36 37 38 39 40 41 42 43 44 45 46 47 48 49 50

279
ASUS45 KBOU 210210
RWRCO

WEATHER ROUNDUP FOR COLORADO
NATIONAL WEATHER SERVICE PUEBLO CO
700 PM MST TUE FEB 20 2018

NOTE: "FAIR" INDICATES FEW OR NO CLOUDS BELOW 12000 FEET WITH NO
SIGNIFICANT WEATHER AND/OR OBSTRUCTIONS TO VISIBILITY.

COZ001>005-013-030-031-210300-
...NORTHWEST COLORADO...

CITY           SKY/WX    TMP DP  RH WIND       PRES   REMARKS
CRAIG          PTCLDY     3  -4  72 CALM      30.07R
HAYDEN         MOCLDY     6   0  76 CALM      30.06R
MEEKER         CLEAR      4  -3  73 E6        30.04R WCI  -7
RABBIT EARS PA NOT AVBL
STEAMBOAT SPGS CLOUDY     9   0  68 CALM      30.03R
WALDEN         FAIR       3  -9  55 S3        29.95R
$$

COZ006>008-011-210300-
...WEST CENTRAL VALLEYS...

CITY           SKY/WX    TMP DP  RH WIND       PRES   REMARKS
GRAND JUNCTION PTCLDY    28  17  63 SE9       30.07R WCI  19
MONTROSE       MOCLDY    20  19  96 SW5       30.11R WCI  13
EAGLE          FLURRIES  19  10  68 S14       30.04R WCI   6
RIFLE          PTCLDY    20   9  62 SW8       30.07R WCI  10
DELTA          NOT AVBL
NUCLA          MOCLDY    25  18  74 CALM      30.10R
$$

COZ017>023-064>068-210300-
...SOUTHWEST COLORADO...

CITY           SKY/WX    TMP DP  RH WIND       PRES   REMARKS
DURANGO        CLOUDY    22  12  65 E3        30.03R
CORTEZ         PTCLDY    21  11  65 E6        30.05R WCI  13
PAGOSA SPRINGS CLOUDY    20   6  53 CALM      30.02S
TELLURIDE      LGT SNOW  12   5  73 CALM      29.96R
WOLF CREEK PAS CLOUDY    -2  -4  92 SW18G30   29.88S WCI -24
$$

COZ009-010-012-014-032>034-037-058>063-210300-
...CENTRAL COLORADO...

CITY           SKY/WX    TMP DP  RH WIND       PRES   REMARKS
ASPEN          CLOUDY    11   8  88 CALM      29.97R
BUENA VISTA    CLOUDY    17  -3  41 W9        29.95R WCI   6
COPPER MTN     PTCLDY     1  -9  60 S5        29.79R WCI  -8
BERTHOUD PASS  FAIR      -8 -18  59 W17G24    29.75R WCI -31
COTTONWOOD PAS CLOUDY    16   0  48 W5        29.89R WCI   9
GUNNISON       PTCLDY    12   3  67 S5        29.99R WCI   4
KREMMLING      LGT SNOW  18  12  79 S3        30.00R
LEADVILLE      PTCLDY    -2  -7  79 NE5       29.87R WCI -12
MONARCH PASS   LGT SNOW   0  -4  85 SW17G25   29.92R WCI -21
SALIDA         FAIR      20   2  46 W10       30.04R WCI   9
SUNLIGHT       CLOUDY     0  -6  78 SW7       29.91R FOG     WCI -13
WILKERSON PASS CLOUDY     3  -8  60 SW8G18    29.85R WCI -10
$$

COZ069>075-210300-
...SAN LUIS VALLEY/SANGRE DE CRISTO MOUNTAINS...

CITY           SKY/WX    TMP DP  RH WIND       PRES   REMARKS
ALAMOSA        CLEAR     18   2  49 S12       29.98R WCI   5
DEL NORTE      FAIR      17   0  46 SW7       29.98R WCI   8
LA VETA PASS   PTCLDY    10  -2  56 S25G40    29.98S WCI -10
SAGUACHE       PTCLDY    18   7  62 NW7       29.97R WCI   8
$$

COZ035-036-038>040-210300-
...NORTHERN COLORADO FRONT RANGE...

CITY           SKY/WX    TMP DP  RH WIND       PRES   REMARKS
DENVER INTL AP PTCLDY     5   0  79 SE7       30.08R WCI  -7
DMNS CITY PARK NOT AVBL
AURORA         PTCLDY     5   2  86 S7        30.07R WCI  -7
FRONT RANGE AP NOT AVBL
ERIE MUNI ARPT MOCLDY     6   2  84 CALM      30.17R
BOULDER MUN AP FAIR       9   3  78 CALM      30.10R
CENTENNIAL     PTCLDY    10   7  87 S6        30.05R WCI   0
BROOMFIELD     MOCLDY   N/A N/A N/A MISG      30.07R
LOVELAND       PTCLDY     2  -5  72 S5        30.12R WCI  -8
LONGMONT       FAIR       2  -4  75 W3        30.14R
$$

COZ041-046-047-076>085-087-088-210300-
...PIKES PEAK/PALMER DIVIDE AND SOUTHERN FOOTHILLS...

CITY           SKY/WX    TMP DP  RH WIND       PRES   REMARKS
COLO. SPRINGS  LGT SNOW  17  13  84 S15       30.07R FOG     WCI   2
A. F. ACADEMY  CLOUDY    16  12  86 S12       30.03R WCI   3
SCHRIEVER AFB  NOT AVBL
CHEYENNE MTN   NOT AVBL
ELLICOTT         N/A    N/A N/A N/A SE13        N/A
FALCON         FLURRIES  16  12  86 MISG      30.03R
FORT CARSON    CLOUDY    18  12  79 S10       30.08R WCI   6
LIMON          CLEAR      3   0  87 CALM      30.11R
MONUMENT HILL  FLURRIES  18  12  79 S10       30.01R WCI   6
CANON CITY     CLOUDY    21  14  73 E13       30.10R WCI   9
WALSENBURG     FAIR      14  12  92 NE6       30.08R WCI   5
TRINIDAD       MOCLDY    18  10  71 N7        30.07R WCI   9
$$

COZ042>045-048>051-090-091-210300-
...NORTHEAST COLORADO...

CITY           SKY/WX    TMP DP  RH WIND       PRES   REMARKS
GREELEY ARPT   PTCLDY    -5  -9  83 N6        30.15R WCI -18
AKRON          CLEAR      6  -2  69 SE6       30.15R WCI  -4
BURLINGTON     PTCLDY     4  -2  76 E3        30.20R
WRAY           FAIR       5   0  78 N7        30.24R WCI  -7
YUMA           NOT AVBL
STERLING       FAIR       9   1  72 NW3       30.17S
HOLYOKE        FAIR       9   0  66 CALM      30.23R
FORT MORGAN    CLOUDY     8   0  70 W3        30.16R
$$

COZ086-089-092>099-210300-
...SOUTHEAST COLORADO...

CITY           SKY/WX    TMP DP  RH WIND       PRES   REMARKS
PUEBLO         PTCLDY    19  11  70 S5        30.15R WCI  12
LA JUNTA       MOCLDY    19   9  65 NE9       30.18R WCI   8
LAMAR          CLOUDY    20   2  45 E13       30.20R WCI   7
SPRINGFIELD      N/A     12  -1  56 NE9       30.15R WCI   0
$$





USA.gov is the U.S. government's official web portal to all federal, state and local government web resources and services.